Time,TemperatureF,DewpointF,PressureIn,WindDirection,WindDirectionDegrees,WindSpeedMPH,WindSpeedGustMPH,Humidity,HourlyPrecipIn,Conditions,Clouds,dailyrainin,SoftwareType,DateUTC
2015-07-01 00:02:00,67.2,65.1,29.86,ENE,62,0.0,1.0,93,0.00,,,0.27,Wunderground PWS Mod,2015-07-01 04:02:00,
2015-07-01 00:12:00,67.2,65.1,29.86,West,270,0.0,2.0,93,0.08,,,0.02,Wunderground PWS Mod,2015-07-01 04:12:00,
2015-07-01 00:15:00,67.1,65.0,29.85,West,270,0.0,2.0,93,0.04,,,0.07,Wunderground PWS Mod,2015-07-01 04:15:00,
2015-07-01 00:22:00,67.2,65.1,29.86,West,268,0.0,2.0,93,0.06,,,0.03,Wunderground PWS Mod,2015-07-01 04:22:00,
2015-07-01 00:32:00,67.1,65.0,29.85,ESE,111,1.0,1.0,93,0.05,,,0.03,Wunderground PWS Mod,2015-07-01 04:32:00,
2015-07-01 00:42:00,67.1,65.0,29.85,ESE,113,0.0,2.0,93,0.00,,,0.03,Wunderground PWS Mod,2015-07-01 04:42:00,
2015-07-01 00:52:00,67.1,65.0,29.85,ESE,113,0.0,2.0,93,0.00,,,0.03,Wunderground PWS Mod,2015-07-01 04:52:00,
2015-07-01 01:02:00,67.1,65.0,29.84,ESE,113,0.0,2.0,93,0.61,,,0.06,Wunderground PWS Mod,2015-07-01 05:02:00,
2015-07-01 01:12:00,67.1,65.0,29.84,ESE,113,0.0,1.0,93,0.73,,,0.18,Wunderground PWS Mod,2015-07-01 05:12:00,
2015-07-01 01:15:00,67.1,65.0,29.83,ESE,113,0.0,1.0,93,0.23,,,0.45,Wunderground PWS Mod,2015-07-01 05:15:00,
2015-07-01 01:22:00,67.1,65.0,29.84,ESE,113,0.0,1.0,93,0.16,,,0.25,Wunderground PWS Mod,2015-07-01 05:22:00,
2015-07-01 01:32:00,67.1,65.0,29.83,ESE,113,0.0,1.0,93,0.06,,,0.26,Wunderground PWS Mod,2015-07-01 05:32:00,
2015-07-01 01:42:00,67.2,65.1,29.83,ESE,113,0.0,1.0,93,0.10,,,0.28,Wunderground PWS Mod,2015-07-01 05:42:00,
2015-07-01 01:52:00,67.2,65.1,29.83,ESE,113,0.0,1.0,93,0.36,,,0.36,Wunderground PWS Mod,2015-07-01 05:52:00,
2015-07-01 02:02:00,67.2,65.4,29.83,ESE,113,0.0,1.0,94,0.33,,,0.45,Wunderground PWS Mod,2015-07-01 06:02:00,
2015-07-01 02:12:00,67.2,65.4,29.81,ESE,112,0.0,1.0,94,0.18,,,0.51,Wunderground PWS Mod,2015-07-01 06:12:00,
2015-07-01 02:15:00,67.1,65.3,29.81,ESE,113,0.0,1.0,94,0.25,,,0.52,Wunderground PWS Mod,2015-07-01 06:15:00,
2015-07-01 02:22:00,67.2,65.4,29.81,ESE,112,0.0,1.0,94,0.05,,,0.51,Wunderground PWS Mod,2015-07-01 06:22:00,
2015-07-01 02:32:00,67.1,65.3,29.81,ESE,112,0.0,1.0,94,0.00,,,0.51,Wunderground PWS Mod,2015-07-01 06:32:00,
2015-07-01 02:42:00,67.1,65.3,29.81,ESE,112,0.0,1.0,94,0.00,,,0.51,Wunderground PWS Mod,2015-07-01 06:42:00,
2015-07-01 02:52:00,67.1,65.3,29.81,ESE,112,0.0,1.0,94,0.00,,,0.51,Wunderground PWS Mod,2015-07-01 06:52:00,
2015-07-01 03:02:00,67.1,65.3,29.81,ESE,112,0.0,1.0,94,0.00,,,0.52,Wunderground PWS Mod,2015-07-01 07:02:00,
2015-07-01 03:12:00,67.2,65.4,29.81,ESE,112,0.0,2.0,94,0.00,,,0.52,Wunderground PWS Mod,2015-07-01 07:12:00,
2015-07-01 03:15:00,67.3,65.5,29.81,ESE,113,0.0,1.0,94,0.13,,,0.76,Wunderground PWS Mod,2015-07-01 07:15:00,
2015-07-01 03:20:00,67.3,65.5,29.81,ESE,113,0.0,1.0,94,0.13,,,0.76,Wunderground PWS Mod,2015-07-01 07:20:00,
2015-07-01 03:22:00,67.2,65.4,29.81,ESE,111,0.0,2.0,94,0.85,,,0.58,Wunderground PWS Mod,2015-07-01 07:22:00,
2015-07-01 03:32:00,67.3,65.5,29.81,East,98,0.0,2.0,94,0.77,,,0.64,Wunderground PWS Mod,2015-07-01 07:32:00,
2015-07-01 03:42:00,67.3,65.5,29.80,East,98,0.0,2.0,94,0.10,,,0.66,Wunderground PWS Mod,2015-07-01 07:42:00,
2015-07-01 03:52:00,67.4,65.6,29.79,East,98,0.0,2.0,94,0.53,,,0.70,Wunderground PWS Mod,2015-07-01 07:52:00,
2015-07-01 04:02:00,67.4,65.6,29.79,SW,215,0.0,2.0,94,0.29,,,0.76,Wunderground PWS Mod,2015-07-01 08:02:00,
2015-07-01 04:12:00,67.4,65.6,29.79,SW,215,0.0,2.0,94,0.20,,,0.82,Wunderground PWS Mod,2015-07-01 08:12:00,
2015-07-01 04:15:00,67.3,65.5,29.79,SW,225,0.0,1.0,94,0.18,,,0.85,Wunderground PWS Mod,2015-07-01 08:15:00,
2015-07-01 04:22:00,67.4,65.6,29.78,SW,215,0.0,2.0,94,0.06,,,0.82,Wunderground PWS Mod,2015-07-01 08:22:00,
2015-07-01 04:32:00,67.3,65.5,29.79,SW,215,0.0,2.0,94,0.00,,,0.82,Wunderground PWS Mod,2015-07-01 08:32:00,
2015-07-01 04:42:00,67.3,65.5,29.79,SW,215,0.0,2.0,94,0.00,,,0.82,Wunderground PWS Mod,2015-07-01 08:42:00,
2015-07-01 04:52:00,67.2,65.4,29.78,East,94,1.0,1.0,94,0.45,,,0.84,Wunderground PWS Mod,2015-07-01 08:52:00,
2015-07-01 05:02:00,67.2,65.4,29.76,East,94,0.0,2.0,94,0.06,,,0.85,Wunderground PWS Mod,2015-07-01 09:02:00,
2015-07-01 05:13:00,67.1,65.3,29.76,East,94,0.0,1.0,94,0.05,,,0.85,Wunderground PWS Mod,2015-07-01 09:13:00,
2015-07-01 05:15:00,67.0,65.2,29.77,East,90,0.0,2.0,94,0.03,,,0.85,Wunderground PWS Mod,2015-07-01 09:15:00,
2015-07-01 05:22:00,67.0,65.2,29.76,East,94,0.0,1.0,94,0.00,,,0.85,Wunderground PWS Mod,2015-07-01 09:22:00,
2015-07-01 05:32:00,67.0,65.2,29.77,East,94,0.0,1.0,94,0.00,,,0.85,Wunderground PWS Mod,2015-07-01 09:32:00,
2015-07-01 05:42:00,67.0,65.2,29.78,East,94,0.0,1.0,94,0.00,,,0.85,Wunderground PWS Mod,2015-07-01 09:42:00,
2015-07-01 05:52:00,67.0,65.2,29.78,East,94,0.0,1.0,94,0.00,,,0.85,Wunderground PWS Mod,2015-07-01 09:52:00,
2015-07-01 06:02:00,67.1,65.3,29.77,East,94,0.0,1.0,94,0.00,,,0.85,Wunderground PWS Mod,2015-07-01 10:02:00,
2015-07-01 06:12:00,67.1,65.3,29.77,East,94,0.0,0.0,94,0.00,,,0.86,Wunderground PWS Mod,2015-07-01 10:12:00,
2015-07-01 06:15:00,66.8,65.0,29.76,East,90,0.0,1.0,94,0.01,,,0.86,Wunderground PWS Mod,2015-07-01 10:15:00,
2015-07-01 06:22:00,67.0,65.2,29.77,East,94,0.0,0.0,94,0.00,,,0.86,Wunderground PWS Mod,2015-07-01 10:22:00,
2015-07-01 06:32:00,66.8,65.0,29.76,East,94,0.0,0.0,94,0.00,,,0.86,Wunderground PWS Mod,2015-07-01 10:32:00,
2015-07-01 06:42:00,66.7,64.9,29.76,East,94,0.0,0.0,94,0.00,,,0.86,Wunderground PWS Mod,2015-07-01 10:42:00,
2015-07-01 06:52:00,66.6,64.8,29.76,East,94,0.0,0.0,94,0.00,,,0.86,Wunderground PWS Mod,2015-07-01 10:52:00,
2015-07-01 07:02:00,66.6,64.8,29.75,East,94,0.0,0.0,94,0.00,,,0.86,Wunderground PWS Mod,2015-07-01 11:02:00,
2015-07-01 07:12:00,66.6,64.8,29.75,East,94,0.0,0.0,94,0.00,,,0.86,Wunderground PWS Mod,2015-07-01 11:12:00,
2015-07-01 07:15:00,66.6,64.8,29.76,NNE,23,0.0,1.0,94,0.00,,,0.86,Wunderground PWS Mod,2015-07-01 11:15:00,
2015-07-01 07:22:00,66.5,64.7,29.75,NNE,23,0.0,0.0,94,0.00,,,0.86,Wunderground PWS Mod,2015-07-01 11:22:00,
2015-07-01 07:32:00,66.5,64.7,29.76,NNE,23,0.0,0.0,94,0.00,,,0.86,Wunderground PWS Mod,2015-07-01 11:32:00,
2015-07-01 07:42:00,66.7,64.9,29.76,NNE,23,0.0,0.0,94,0.00,,,0.86,Wunderground PWS Mod,2015-07-01 11:42:00,
2015-07-01 07:52:00,66.6,64.8,29.75,NNE,23,0.0,0.0,94,0.00,,,0.86,Wunderground PWS Mod,2015-07-01 11:52:00,
2015-07-01 08:02:00,66.4,64.6,29.75,North,360,0.0,0.0,94,0.00,,,0.86,Wunderground PWS Mod,2015-07-01 12:02:00,
2015-07-01 08:12:00,66.5,64.7,29.76,West,259,0.0,1.0,94,0.00,,,0.86,Wunderground PWS Mod,2015-07-01 12:12:00,
2015-07-01 08:15:00,66.5,64.7,29.75,West,270,0.0,3.0,94,0.00,,,0.86,Wunderground PWS Mod,2015-07-01 12:15:00,
2015-07-01 08:22:00,66.6,64.8,29.76,West,269,0.0,1.0,94,0.00,,,0.86,Wunderground PWS Mod,2015-07-01 12:22:00,
2015-07-01 08:32:00,66.5,64.7,29.75,West,259,0.0,1.0,94,0.00,,,0.86,Wunderground PWS Mod,2015-07-01 12:32:00,
2015-07-01 08:42:00,66.5,64.7,29.76,West,259,0.0,1.0,94,0.00,,,0.86,Wunderground PWS Mod,2015-07-01 12:42:00,
2015-07-01 08:52:00,66.4,64.6,29.77,WSW,257,0.0,1.0,94,0.00,,,0.86,Wunderground PWS Mod,2015-07-01 12:52:00,
2015-07-01 09:02:00,66.6,64.8,29.77,WSW,257,0.0,1.0,94,0.00,,,0.86,Wunderground PWS Mod,2015-07-01 13:02:00,
2015-07-01 09:12:00,66.8,65.0,29.76,WSW,257,0.0,2.0,94,0.00,,,0.86,Wunderground PWS Mod,2015-07-01 13:12:00,
2015-07-01 09:15:00,67.5,65.7,29.76,WSW,248,0.0,1.0,94,0.00,,,0.86,Wunderground PWS Mod,2015-07-01 13:15:00,
2015-07-01 09:22:00,67.1,65.3,29.76,WSW,257,0.0,2.0,94,0.00,,,0.86,Wunderground PWS Mod,2015-07-01 13:22:00,
2015-07-01 09:32:00,67.5,65.7,29.76,WSW,257,0.0,2.0,94,0.00,,,0.86,Wunderground PWS Mod,2015-07-01 13:32:00,
2015-07-01 09:42:00,68.0,66.2,29.75,WSW,258,0.0,2.0,94,0.00,,,0.86,Wunderground PWS Mod,2015-07-01 13:42:00,
2015-07-01 09:52:00,68.2,66.4,29.76,South,172,1.0,1.0,94,0.00,,,0.86,Wunderground PWS Mod,2015-07-01 13:52:00,
2015-07-01 10:02:00,68.6,66.8,29.75,South,172,0.0,2.0,94,0.00,,,0.86,Wunderground PWS Mod,2015-07-01 14:02:00,
2015-07-01 10:13:00,68.7,66.9,29.75,SW,219,1.0,2.0,94,0.00,,,0.86,Wunderground PWS Mod,2015-07-01 14:13:00,
2015-07-01 10:15:00,68.8,66.7,29.75,SW,225,1.0,3.0,93,0.00,,,0.86,Wunderground PWS Mod,2015-07-01 14:15:00,
2015-07-01 10:22:00,68.7,66.6,29.75,WSW,255,1.0,2.0,93,0.00,,,0.86,Wunderground PWS Mod,2015-07-01 14:22:00,
2015-07-01 10:32:00,68.8,66.7,29.75,WSW,256,1.0,2.0,93,0.00,,,0.86,Wunderground PWS Mod,2015-07-01 14:32:00,
2015-07-01 10:42:00,69.2,67.1,29.75,WSW,250,0.0,4.0,93,0.00,,,0.86,Wunderground PWS Mod,2015-07-01 14:42:00,
2015-07-01 10:52:00,69.5,67.1,29.75,WSW,248,1.0,1.0,92,0.00,,,0.86,Wunderground PWS Mod,2015-07-01 14:52:00,
2015-07-01 11:02:00,69.9,67.5,29.75,WSW,248,0.0,2.0,92,0.00,,,0.86,Wunderground PWS Mod,2015-07-01 15:02:00,
2015-07-01 11:12:00,70.2,67.4,29.76,WSW,255,1.0,4.0,91,0.00,,,0.86,Wunderground PWS Mod,2015-07-01 15:12:00,
2015-07-01 11:15:00,70.8,67.7,29.76,WSW,248,1.0,3.0,90,0.00,,,0.86,Wunderground PWS Mod,2015-07-01 15:15:00,
2015-07-01 11:22:00,70.4,67.6,29.76,WSW,255,0.0,4.0,91,0.00,,,0.86,Wunderground PWS Mod,2015-07-01 15:22:00,
2015-07-01 11:32:00,70.8,67.7,29.76,WSW,255,0.0,4.0,90,0.00,,,0.86,Wunderground PWS Mod,2015-07-01 15:32:00,
2015-07-01 11:42:00,71.3,68.2,29.75,SW,232,1.0,1.0,90,0.00,,,0.86,Wunderground PWS Mod,2015-07-01 15:42:00,
2015-07-01 11:52:00,71.9,68.5,29.76,SW,217,1.0,4.0,89,0.00,,,0.86,Wunderground PWS Mod,2015-07-01 15:52:00,
2015-07-01 12:02:00,73.0,69.2,29.76,WSW,239,1.0,1.0,88,0.00,,,0.86,Wunderground PWS Mod,2015-07-01 16:02:00,
2015-07-01 12:12:00,74.3,69.5,29.75,West,264,1.0,4.0,85,0.00,,,0.86,Wunderground PWS Mod,2015-07-01 16:12:00,
2015-07-01 12:22:00,74.8,69.3,29.74,WSW,251,1.0,1.0,83,0.00,,,0.86,Wunderground PWS Mod,2015-07-01 16:22:00,
2015-07-01 12:32:00,75.5,69.6,29.74,West,274,1.0,5.0,82,0.00,,,0.86,Wunderground PWS Mod,2015-07-01 16:32:00,
2015-07-01 12:42:00,76.0,69.7,29.75,SW,222,2.0,2.0,81,0.00,,,0.86,Wunderground PWS Mod,2015-07-01 16:42:00,
2015-07-01 12:52:00,76.6,68.8,29.74,WSW,251,2.0,4.0,77,0.00,,,0.86,Wunderground PWS Mod,2015-07-01 16:52:00,
2015-07-01 13:02:00,77.1,68.6,29.74,WSW,248,1.0,4.0,75,0.00,,,0.86,Wunderground PWS Mod,2015-07-01 17:02:00,